Flag for Canada Weather past 2 weeks in Kingston, Ontario, Canada

Now
61 °F

Passing clouds.


Feels Like: 61 °F
Forecast: 54 / 74 °F
Wind: 6 mph from West

Location: Kingston

Current Time: Aug 27, 2015 at 10:32:48 PM

Latest Report: Aug 27, 2015 at 10:00 PM


Visibility: 15 mi

Pressure: 30.13 "Hg

Humidity: 83%

Dew point: 55 °F

Location of KingstonLocation

Historic Weather in Kingston — Graph

°F

Kingston temperature yesterday

Maximum temperature yesterday: 72 °F (at 4:00 PM)
Minimum temperature yesterday: 57 °F (at 6:00 AM)
Average temperature yesterday: 66 °F

Past Weeks' High & Low Weather Summary

 TemperatureHumidityPressure
High82 °F (Aug 18, 4:00 PM)100% (Aug 15, 10:00 PM)30.19 "Hg (Aug 15, 10:00 PM)
Low55 °F (Aug 22, 6:00 AM)53% (Aug 13, 6:00 PM)29.77 "Hg (Aug 20, 4:00 PM)
Average71 °F80%29.99 "Hg
* Reported Aug 12 9:00 PM — Aug 27 9:00 PM, Kingston, Weather by CustomWeather, © 2015

Note: Actual official high and low records may vary slightly from our data, if they occured in-between our weather recording intervals... More about our weather records

Advertising

Kingston weather history for previous 24 hours

 ConditionsComfort  
Time TempWeatherWind HumidityBarometerVisibility
9:00 PM
Thu, Aug 27
64 °FPassing clouds.6 mph73%30.13 "Hg15 mi
8:00 PM64 °FPartly sunny.6 mph73%30.11 "Hg15 mi
7:00 PM66 °FPartly sunny.7 mph68%30.10 "Hg15 mi
6:00 PM68 °FPartly sunny.10 mph64%30.09 "Hg15 mi
5:00 PM68 °FBroken clouds.6 mph60%30.09 "Hg15 mi
4:00 PM68 °FBroken clouds.6 mph60%30.08 "Hg14 mi
3:00 PM68 °FPartly sunny.5 mph60%30.10 "Hg15 mi
2:00 PM68 °FOvercast.8 mph60%30.10 "Hg15 mi
1:00 PM68 °FPartly sunny.5 mph60%30.09 "Hg15 mi
12:00 PM66 °FPartly sunny.8 mph60%30.09 "Hg15 mi
11:00 AM66 °FPartly sunny.12 mph64%30.09 "Hg15 mi
10:00 AM64 °FPartly sunny.7 mph73%30.09 "Hg15 mi
9:00 AM63 °FPartly sunny.10 mph77%30.08 "Hg15 mi
8:00 AM59 °FBroken clouds.8 mph94%30.07 "Hg15 mi
7:00 AM59 °FPassing clouds.7 mph88%30.05 "Hg15 mi
6:00 AM57 °FPassing clouds.6 mph94%30.04 "Hg15 mi
11:00 PM
Wed, Aug 26
63 °FPassing clouds.9 mph77%30.01 "Hg15 mi
10:00 PM63 °FPartly cloudy.8 mph83%30.01 "Hg15 mi
Weather by CustomWeather, © 2015

See weather overviewHow to use our weather pages